Location: Karcze
(52.0945°N, 22.4786°E)
Time: 17:18:56
(UTC+00:00)

A-11 Canister half - All Passes

Search period start: 27 July 2021 00:00
Search period end: 06 August 2021 00:00
Orbit: 1527 x 1682 km, 47.3° (Epoch: 27 July)

Date Brightness Start Highest point End Pass type
(mag) Time Alt. Az. Time Alt. Az. Time Alt. Az.
27 Jul - 10:00:07 10° S 10:08:02 27° SE 10:15:49 10° E daylight
27 Jul - 12:01:56 10° SW 12:11:38 55° SSE 12:21:06 10° E daylight
27 Jul - 14:06:14 10° W 14:16:07 68° S 14:25:42 10° ESE daylight
27 Jul - 16:11:06 10° W 16:20:28 50° SSW 16:29:31 10° SE daylight
27 Jul - 18:16:54 10° W 18:23:43 22° SW 18:30:23 10° S daylight
28 Jul - 09:38:42 10° S 09:46:27 26° SE 09:54:05 10° E daylight
28 Jul - 11:40:19 10° SW 11:50:00 54° SSE 11:59:26 10° E daylight
28 Jul - 13:44:32 10° W 13:54:28 68° S 14:04:04 10° ESE daylight
28 Jul - 15:49:24 10° W 15:58:50 51° SSW 16:07:57 10° SE daylight
28 Jul - 17:55:06 10° W 18:02:09 23° SW 18:09:03 10° S daylight
29 Jul - 09:17:16 10° S 09:24:51 25° SE 09:32:19 10° E daylight
29 Jul - 11:18:41 10° SW 11:28:21 53° SSE 11:37:47 10° E daylight
29 Jul - 13:22:51 10° W 13:32:48 68° S 13:42:26 10° E daylight
29 Jul - 15:27:43 10° W 15:37:12 53° SSW 15:46:22 10° SE daylight
29 Jul - 17:33:20 10° W 17:40:35 24° SW 17:47:41 10° S daylight
30 Jul - 08:55:52 10° S 09:03:15 24° SE 09:10:35 10° E daylight
30 Jul - 10:57:04 10° SW 11:06:42 51° SSE 11:16:08 10° E daylight
30 Jul - 13:01:11 10° WSW 13:11:08 68° S 13:20:48 10° E daylight
30 Jul - 15:06:01 10° W 15:15:34 54° SSW 15:24:49 10° SE daylight
30 Jul - 17:11:33 10° W 17:19:01 26° SW 17:26:18 10° S daylight
31 Jul - 08:34:28 10° S 08:41:40 23° SE 08:48:48 10° E daylight
31 Jul - 10:35:28 10° SW 10:45:04 50° SSE 10:54:28 10° E daylight
31 Jul - 12:39:29 10° WSW 12:49:28 68° S 12:59:09 10° E daylight
31 Jul - 14:44:19 10° W 14:53:56 55° SSW 15:03:14 10° SE daylight
31 Jul - 16:49:47 10° W 16:57:27 27° SW 17:04:55 10° S daylight
01 Aug - 08:13:06 10° S 08:20:05 22° SE 08:27:01 10° E daylight
01 Aug - 10:13:51 10° SW 10:23:25 49° SSE 10:32:49 10° E daylight
01 Aug - 12:17:48 10° WSW 12:27:48 68° S 12:37:30 10° E daylight
01 Aug - 14:22:38 10° W 14:32:17 56° SSW 14:41:39 10° SE daylight
01 Aug - 16:28:01 10° W 16:35:52 28° SW 16:43:31 10° S daylight
02 Aug - 07:51:46 10° S 07:58:31 20° SE 08:05:12 10° E daylight
02 Aug - 09:52:15 10° SW 10:01:46 48° SSE 10:11:08 10° E daylight
02 Aug - 11:56:08 10° WSW 12:06:08 67° S 12:15:52 10° E daylight
02 Aug - 14:00:56 10° W 14:10:39 57° SSW 14:20:04 10° SE daylight
02 Aug - 16:06:16 10° W 16:14:17 29° SW 16:22:06 10° SSE daylight
03 Aug - 07:30:27 10° S 07:36:56 19° SE 07:43:23 10° E daylight
03 Aug - 09:30:40 10° SW 09:40:08 46° SSE 09:49:28 10° E daylight
03 Aug - 11:34:27 10° WSW 11:44:28 67° S 11:54:13 10° E daylight
03 Aug - 13:39:14 10° W 13:49:00 59° SSW 13:58:28 10° ESE daylight
03 Aug - 15:44:31 10° W 15:52:42 31° SW 16:00:39 10° SSE daylight
04 Aug - 07:09:09 10° SSE 07:15:21 18° SE 07:21:32 10° E daylight
04 Aug - 09:09:05 10° SW 09:18:30 45° SSE 09:27:48 10° E daylight
04 Aug - 11:12:46 10° WSW 11:22:47 67° S 11:32:34 10° E daylight
04 Aug - 13:17:33 10° W 13:27:21 60° SSW 13:36:52 10° ESE daylight
04 Aug - 15:22:47 10° W 15:31:06 32° SW 15:39:13 10° SSE daylight
05 Aug - 06:47:53 10° SSE 06:53:47 17° SE 06:59:39 10° E daylight
05 Aug - 08:47:30 10° SW 08:56:51 44° SSE 09:06:07 10° E daylight
05 Aug - 10:51:07 10° WSW 11:01:07 66° S 11:10:55 10° E daylight
05 Aug - 12:55:52 10° W 13:05:42 61° SSW 13:15:15 10° ESE daylight
05 Aug - 15:01:03 10° W 15:09:31 33° SW 15:17:46 10° SSE daylight
